Linden, NJ

2:10 PM EDT on March 24, 2017 (GMT -0400)
Linden

Weather History for KLDJ - January, 2013

Change the Weather History Date:

Saturday, January 19, 2013

  Actual Average (KEWR) Record (KEWR)
Temperature  
Mean Temperature 40 °F -  
Max Temperature 53 °F 37 °F 64 °F (1951)
Min Temperature 28 °F 22 °F -2 °F (1994)
Degree Days  
Heating Degree Days 24    
Moisture  
Dew Point 23 °F    
Average Humidity 49    
Maximum Humidity 68    
Minimum Humidity 33    
Precipitation  
Precipitation 0.00 in - - ()
Sea Level Pressure  
Sea Level Pressure 30.18 in    
Wind  
Wind Speed 4 mph (SW)    
Max Wind Speed 17 mph    
Max Gust Speed 24 mph    
Visibility 10 miles    
Events      
Averages and records for this station are not official NWS values.
T = Trace of Precipitation, MM = Missing Value Source: NWS Daily Summary

Daily Weather History Graph

Daily Weather History Graph

Search for Another Location

Airport or City:

Trip Planner

Search our weather history database for the weather conditions in past years. The results will help you decide how hot, cold, wet, or windy it might be!

Date:

Astronomy

Jan. 19, 2013 Rise Set
Actual Time 7:16 AM EST 4:59 PM EST
Civil Twilight 6:46 AM EST 5:29 PM EST
Nautical Twilight 6:13 AM EST 6:02 PM EST
Astronomical Twilight 5:40 AM EST 6:35 PM EST
Moon 11:24 AM EST (1/19) 12:47 AM EST (1/19)
Length of Visible Light 10h 42m
Length of Day
9h 42m
First Quarter, 57% of the Moon is Illuminated
Jan 19
First Quarter
Jan 26
Full
Feb 3
Last Quarter
Feb 10
New
Feb 17
First Quarter

Hourly Weather History & Observations

Time (EST) Temp. Windchill Dew Point Humidity Pressure Visibility Wind Dir Wind Speed Gust Speed Precip Events Conditions
12:15 AM 29.8 °F 26.3 °F 11.7 °F 47% 30.42 in 10.0 mi SSW 3.5 mph - N/A   Clear
12:35 AM 29.3 °F - 12.2 °F 49% 30.42 in 10.0 mi Calm Calm - N/A   Clear
12:55 AM 29.1 °F - 12.0 °F 49% 30.41 in 10.0 mi Calm Calm - N/A   Clear
1:15 AM 28.9 °F - 12.6 °F 50% 30.41 in 10.0 mi Calm Calm - N/A   Clear
1:35 AM 29.3 °F 25.6 °F 12.6 °F 50% 30.41 in 10.0 mi South 3.5 mph - N/A   Clear
2:15 AM 29.8 °F - 13.8 °F 51% 30.40 in 10.0 mi Calm Calm - N/A   Clear
2:35 AM 30.0 °F - 14.4 °F 52% 30.39 in 10.0 mi Calm Calm - N/A   Clear
2:55 AM 30.6 °F 27.1 °F 15.1 °F 53% 30.38 in 10.0 mi SSW 3.5 mph - N/A   Clear
3:15 AM 30.6 °F 25.8 °F 15.8 °F 54% 30.37 in 10.0 mi SSW 4.6 mph - N/A   Clear
3:35 AM 30.7 °F 27.3 °F 16.2 °F 55% 30.37 in 10.0 mi SSW 3.5 mph - N/A   Clear
3:55 AM 30.2 °F 26.7 °F 16.5 °F 57% 30.35 in 10.0 mi SSW 3.5 mph - N/A   Clear
4:15 AM 30.2 °F - 16.7 °F 57% 30.35 in 10.0 mi Calm Calm - N/A   Clear
4:35 AM 30.0 °F - 17.4 °F 59% 30.34 in 10.0 mi Calm Calm - N/A   Clear
4:55 AM 30.6 °F - 17.6 °F 59% 30.34 in 10.0 mi Calm Calm - N/A   Scattered Clouds
5:15 AM 31.1 °F 27.7 °F 18.5 °F 60% 30.34 in 10.0 mi WSW 3.5 mph - N/A   Mostly Cloudy
5:35 AM 31.6 °F 27.0 °F 19.9 °F 62% 30.33 in 10.0 mi SW 4.6 mph - N/A   Mostly Cloudy
6:15 AM 32.2 °F 25.8 °F 21.6 °F 65% 30.33 in 10.0 mi SW 6.9 mph - N/A   Clear
6:35 AM 32.2 °F 26.7 °F 21.9 °F 66% 30.32 in 10.0 mi SW 5.8 mph - N/A   Clear
6:55 AM 32.2 °F 26.7 °F 22.3 °F 67% 30.32 in 10.0 mi SW 5.8 mph - N/A   Clear
8:15 AM 33.6 °F 29.4 °F 24.1 °F 68% 30.31 in 10.0 mi WSW 4.6 mph - N/A   Clear
8:55 AM 35.6 °F 29.2 °F 25.3 °F 66% 30.31 in 10.0 mi SW 8.1 mph - N/A   Clear
9:15 AM 37.0 °F 31.0 °F 25.9 °F 64% 30.29 in 10.0 mi SW 8.1 mph - N/A   Clear
9:35 AM 37.4 °F 29.8 °F 26.1 °F 64% 30.30 in 10.0 mi WSW 11.5 mph 16.1 mph N/A   Clear
10:55 AM 43.7 °F 38.1 °F 26.2 °F 50% 30.25 in 10.0 mi WSW 10.4 mph 16.1 mph N/A   Clear
11:15 AM 45.0 °F 39.3 °F 26.4 °F 48% 30.23 in 10.0 mi WSW 11.5 mph 17.3 mph N/A   Clear
11:35 AM 45.5 °F 39.6 °F 25.7 °F 46% 30.21 in 10.0 mi WSW 12.7 mph 20.7 mph N/A   Clear
12:15 PM 47.3 °F - 25.5 °F 43% 30.18 in 10.0 mi WSW 17.3 mph 24.2 mph N/A   Clear
1:15 PM 50.9 °F - 25.7 °F 38% 30.14 in 10.0 mi WSW 13.8 mph 17.3 mph N/A   Clear
1:55 PM 52.2 °F - 25.2 °F 35% 30.12 in 10.0 mi SW 11.5 mph 18.4 mph N/A   Clear
2:15 PM 52.2 °F - 24.8 °F 35% 30.11 in 10.0 mi SW 9.2 mph 19.6 mph N/A   Clear
2:35 PM 52.7 °F - 24.6 °F 34% 30.10 in 10.0 mi WSW 9.2 mph 24.2 mph N/A   Clear
3:15 PM 52.9 °F - 24.8 °F 34% 30.09 in 10.0 mi WSW 9.2 mph 16.1 mph N/A   Clear
3:35 PM 53.6 °F - 25.2 °F 33% 30.08 in 10.0 mi SW 5.8 mph - N/A   Clear
3:55 PM 53.1 °F - 25.0 °F 34% 30.08 in 10.0 mi WSW 6.9 mph - N/A   Clear
4:15 PM 53.4 °F - 24.6 °F 33% 30.07 in 10.0 mi SW 6.9 mph - N/A   Clear
4:35 PM 52.5 °F - 25.7 °F 35% 30.06 in 10.0 mi SSW 4.6 mph - N/A   Clear
4:55 PM 51.8 °F - 26.2 °F 37% 30.06 in 10.0 mi SSW 4.6 mph - N/A   Clear
5:15 PM 50.7 °F - 26.2 °F 39% 30.06 in 10.0 mi SW 4.6 mph - N/A   Clear
5:35 PM 50.2 °F - 26.2 °F 39% 30.06 in 10.0 mi SW 3.5 mph - N/A   Clear
5:55 PM 49.8 °F - 26.8 °F 41% 30.06 in 10.0 mi SSW 3.5 mph - N/A   Clear
6:15 PM 49.6 °F - 27.5 °F 42% 30.06 in 10.0 mi Calm Calm - N/A   Clear
6:35 PM 49.3 °F - 27.3 °F 43% 30.05 in 10.0 mi SW 4.6 mph - N/A   Clear
6:55 PM 48.9 °F - 27.3 °F 43% 30.05 in 10.0 mi Calm Calm - N/A   Clear
7:15 PM 48.4 °F - 27.5 °F 44% 30.05 in 10.0 mi Calm Calm - N/A   Clear
7:35 PM 48.2 °F - 27.9 °F 45% 30.04 in 10.0 mi SW 4.6 mph - N/A   Clear
7:55 PM 47.5 °F - 28.2 °F 47% 30.04 in 10.0 mi SW 5.8 mph - N/A   Clear
8:15 PM 46.8 °F - 28.4 °F 49% 30.03 in 10.0 mi SW 4.6 mph - N/A   Clear
8:35 PM 46.4 °F 44.3 °F 28.4 °F 50% 30.02 in 10.0 mi SW 4.6 mph - N/A   Clear
8:55 PM 45.9 °F 42.9 °F 28.4 °F 51% 30.02 in 10.0 mi SW 5.8 mph - N/A   Clear
9:15 PM 45.5 °F 42.5 °F 28.4 °F 51% 30.01 in 10.0 mi SW 5.8 mph - N/A   Clear
9:35 PM 45.5 °F 42.5 °F 28.0 °F 51% 30.00 in 10.0 mi SW 5.8 mph - N/A   Clear
9:55 PM 45.0 °F 43.5 °F 28.2 °F 52% 30.00 in 10.0 mi SSW 3.5 mph - N/A   Clear
10:15 PM 45.5 °F - 28.2 °F 51% 29.99 in 10.0 mi Calm Calm - N/A   Clear
10:35 PM 45.5 °F 42.5 °F 28.4 °F 51% 29.98 in 10.0 mi WSW 5.8 mph - N/A   Clear
10:55 PM 45.0 °F 42.6 °F 28.4 °F 52% 29.97 in 10.0 mi SW 4.6 mph - N/A   Clear
11:15 PM 45.0 °F 41.8 °F 28.8 °F 53% 29.96 in 10.0 mi SW 5.8 mph - N/A   Clear
11:35 PM 44.4 °F 42.9 °F 28.9 °F 55% 29.95 in 10.0 mi SW 3.5 mph - N/A   Clear
11:55 PM 43.7 °F 42.1 °F 28.9 °F 56% 29.94 in 10.0 mi SW 3.5 mph - N/A   Clear